When you browse on this site, cookies collect data to enhance your experience and personalize the content and advertising you see.
Visit our Privacy Policy to learn more. By continuing to use the site, you agree to this use of cookies and data.
  • In Schweiz
  • Länderverzeichnis
  • Für 7 Tage
  • Wassertemperatur
  • Satellitenkarten
  • Wetterkarte
  • Widgets
  • user-avatar
    Anmelden

    Stündliche Wetter Xiuyan

    Heute, 24 Juli, Mittwoch

    Zeit Temperatur Niederschläge Wind Luftdruck Luftfeuchtigkeit
    00:00 +26°C° 0.3 mm 1 m/S 741 mmHg 99%
    01:00 +26°C° 0.3 mm 1 m/S 741 mmHg 99%
    02:00 +26°C° 0 mm 1 m/S 742 mmHg 99%
    03:00 +26°C° 0.2 mm 1 m/S 741 mmHg 99%
    04:00 +26°C° 0.2 mm 1 m/S 741 mmHg 99%
    05:00 +26°C° 0.2 mm 1 m/S 741 mmHg 99%
    06:00 +27°C° 0.1 mm 1 m/S 741 mmHg 97%
    07:00 +27°C° 0.1 mm 1 m/S 742 mmHg 95%
    08:00 +28°C° 0.1 mm 1 m/S 742 mmHg 93%
    09:00 +29°C° 0.2 mm 2 m/S 742 mmHg 89%
    10:00 +30°C° 0.2 mm 3 m/S 742 mmHg 86%
    11:00 +31°C° 0.2 mm 3 m/S 742 mmHg 82%
    12:00 +31°C° 0.3 mm 3 m/S 742 mmHg 81%
    13:00 +33°C° 0.3 mm 3 m/S 741 mmHg 79%
    14:00 +33°C° 0.3 mm 3 m/S 741 mmHg 78%
    15:00 +33°C° 0.1 mm 3 m/S 741 mmHg 79%
    16:00 +31°C° 0.1 mm 3 m/S 741 mmHg 81%
    17:00 +31°C° 0.1 mm 3 m/S 741 mmHg 82%
    18:00 +30°C° 0 mm 3 m/S 742 mmHg 87%
    19:00 +28°C° 0 mm 2 m/S 742 mmHg 92%
    20:00 +27°C° 0 mm 2 m/S 742 mmHg 97%
    21:00 +27°C° 0 mm 2 m/S 742 mmHg 97%
    22:00 +26°C° 0 mm 1 m/S 743 mmHg 98%
    23:00 +26°C° 0 mm 1 m/S 743 mmHg 98%

    Morgen, 25 Juli, Donnerstag

    Zeit Temperatur Niederschläge Wind Luftdruck Luftfeuchtigkeit
    00:00 +26°C° 0 mm 1 m/S 743 mmHg 98%
    01:00 +26°C° 0 mm 1 m/S 743 mmHg 98%
    02:00 +27°C° 0 mm 1 m/S 743 mmHg 98%
    03:00 +27°C° 0 mm 1 m/S 743 mmHg 98%
    04:00 +27°C° 0 mm 1 m/S 743 mmHg 98%
    05:00 +27°C° 0 mm 2 m/S 743 mmHg 98%
    06:00 +27°C° 0.1 mm 2 m/S 743 mmHg 96%
    07:00 +28°C° 0.1 mm 2 m/S 743 mmHg 94%
    08:00 +28°C° 0.1 mm 3 m/S 744 mmHg 92%
    09:00 +29°C° 0.1 mm 3 m/S 744 mmHg 88%
    10:00 +30°C° 0.1 mm 3 m/S 744 mmHg 85%
    11:00 +30°C° 0.1 mm 3 m/S 744 mmHg 82%
    12:00 +31°C° 0.2 mm 3 m/S 743 mmHg 80%
    13:00 +31°C° 0.2 mm 3 m/S 743 mmHg 79%
    14:00 +33°C° 0.2 mm 3 m/S 743 mmHg 77%
    15:00 +31°C° 0.1 mm 3 m/S 743 mmHg 80%
    16:00 +30°C° 0.1 mm 3 m/S 742 mmHg 82%
    17:00 +30°C° 0.1 mm 3 m/S 742 mmHg 84%
    18:00 +29°C° 0.1 mm 3 m/S 742 mmHg 88%
    19:00 +28°C° 0.1 mm 2 m/S 743 mmHg 92%
    20:00 +26°C° 0.1 mm 1 m/S 743 mmHg 97%
    21:00 +26°C° 0 mm 1 m/S 743 mmHg 97%
    22:00 +26°C° 0 mm 1 m/S 743 mmHg 98%
    23:00 +25°C° 0 mm 1 m/S 743 mmHg 98%

    übermorgen, 26 Juli, Freitag

    Zeit Temperatur Niederschläge Wind Luftdruck Luftfeuchtigkeit
    00:00 +25°C° 0 mm 1 m/S 743 mmHg 98%
    01:00 +26°C° 0 mm 1 m/S 743 mmHg 98%
    02:00 +26°C° 0 mm 1 m/S 743 mmHg 98%
    03:00 +26°C° 0 mm 1 m/S 743 mmHg 97%
    04:00 +26°C° 0 mm 1 m/S 743 mmHg 97%
    05:00 +26°C° 0 mm 1 m/S 743 mmHg 97%
    06:00 +27°C° 0 mm 2 m/S 743 mmHg 95%
    07:00 +27°C° 0 mm 2 m/S 743 mmHg 92%
    08:00 +28°C° 0 mm 2 m/S 744 mmHg 90%
    09:00 +29°C° 0 mm 3 m/S 744 mmHg 86%
    10:00 +30°C° 0 mm 3 m/S 744 mmHg 82%
    11:00 +30°C° 0 mm 3 m/S 743 mmHg 79%
    12:00 +31°C° 0 mm 3 m/S 743 mmHg 77%
    13:00 +31°C° 0 mm 3 m/S 743 mmHg 76%
    14:00 +33°C° 0 mm 3 m/S 743 mmHg 75%
    15:00 +31°C° 0 mm 3 m/S 743 mmHg 76%
    16:00 +31°C° 0 mm 3 m/S 742 mmHg 78%
    17:00 +31°C° 0 mm 3 m/S 742 mmHg 80%
    18:00 +29°C° 0 mm 3 m/S 743 mmHg 85%
    19:00 +27°C° 0 mm 2 m/S 743 mmHg 91%
    20:00 +26°C° 0 mm 1 m/S 743 mmHg 96%
    21:00 +25°C° 0 mm 1 m/S 743 mmHg 97%
    22:00 +25°C° 0 mm 1 m/S 744 mmHg 97%
    23:00 +25°C° 0 mm 1 m/S 744 mmHg 98%

    27 Juli, Samstag

    Zeit Temperatur Niederschläge Wind Luftdruck Luftfeuchtigkeit
    00:00 +25°C° 0 mm 1 m/S 744 mmHg 98%
    01:00 +26°C° 0 mm 1 m/S 744 mmHg 97%
    02:00 +26°C° 0 mm 1 m/S 744 mmHg 97%
    03:00 +26°C° 0 mm 1 m/S 744 mmHg 97%
    04:00 +26°C° 0 mm 1 m/S 744 mmHg 97%
    05:00 +26°C° 0 mm 1 m/S 744 mmHg 98%
    06:00 +27°C° 0 mm 2 m/S 745 mmHg 95%
    07:00 +27°C° 0 mm 3 m/S 745 mmHg 92%
    08:00 +28°C° 0 mm 3 m/S 745 mmHg 89%
    09:00 +29°C° 0.1 mm 3 m/S 745 mmHg 85%
    10:00 +30°C° 0.1 mm 4 m/S 745 mmHg 81%
    11:00 +32°C° 0.1 mm 4 m/S 745 mmHg 77%
    12:00 +32°C° 0 mm 4 m/S 745 mmHg 77%
    13:00 +32°C° 0 mm 4 m/S 744 mmHg 77%
    14:00 +32°C° 0 mm 4 m/S 744 mmHg 76%
    15:00 +30°C° 0 mm 4 m/S 744 mmHg 78%
    16:00 +30°C° 0 mm 4 m/S 743 mmHg 79%
    17:00 +30°C° 0 mm 4 m/S 743 mmHg 81%
    18:00 +28°C° 0 mm 3 m/S 743 mmHg 86%
    19:00 +27°C° 0 mm 3 m/S 744 mmHg 91%
    20:00 +26°C° 0 mm 2 m/S 744 mmHg 96%
    21:00 +26°C° 0 mm 2 m/S 744 mmHg 96%
    22:00 +26°C° 0 mm 2 m/S 744 mmHg 96%
    23:00 +26°C° 0 mm 2 m/S 744 mmHg 97%

    28 Juli, Sonntag

    Zeit Temperatur Niederschläge Wind Luftdruck Luftfeuchtigkeit
    00:00 +26°C° 0 mm 3 m/S 744 mmHg 97%
    01:00 +26°C° 0 mm 3 m/S 744 mmHg 97%
    02:00 +26°C° 0 mm 3 m/S 743 mmHg 97%
    03:00 +26°C° 0.1 mm 3 m/S 743 mmHg 97%
    04:00 +26°C° 0.1 mm 3 m/S 743 mmHg 98%
    05:00 +26°C° 0.1 mm 2 m/S 743 mmHg 98%
    06:00 +26°C° 0.1 mm 2 m/S 743 mmHg 97%
    07:00 +27°C° 0.1 mm 3 m/S 743 mmHg 95%
    08:00 +27°C° 0.1 mm 3 m/S 744 mmHg 93%
    09:00 +28°C° 0.4 mm 3 m/S 743 mmHg 91%
    10:00 +29°C° 0.4 mm 4 m/S 743 mmHg 89%
    11:00 +30°C° 0.4 mm 5 m/S 743 mmHg 87%
    12:00 +30°C° 0.4 mm 5 m/S 743 mmHg 85%
    13:00 +32°C° 0.4 mm 5 m/S 743 mmHg 84%
    14:00 +32°C° 0.4 mm 5 m/S 743 mmHg 82%
    15:00 +32°C° 0.1 mm 5 m/S 743 mmHg 81%
    16:00 +32°C° 0.1 mm 4 m/S 742 mmHg 80%
    17:00 +32°C° 0.1 mm 4 m/S 742 mmHg 79%
    18:00 +30°C° 0 mm 4 m/S 743 mmHg 85%
    19:00 +28°C° 0 mm 3 m/S 743 mmHg 90%
    20:00 +27°C° 0 mm 2 m/S 743 mmHg 96%
    21:00 +26°C° 0 mm 2 m/S 743 mmHg 97%
    22:00 +26°C° 0 mm 2 m/S 743 mmHg 98%
    23:00 +26°C° 0 mm 2 m/S 743 mmHg 99%

    29 Juli, Montag

    Zeit Temperatur Niederschläge Wind Luftdruck Luftfeuchtigkeit
    00:00 +26°C° 0 mm 2 m/S 743 mmHg 98%
    01:00 +26°C° 0 mm 2 m/S 743 mmHg 98%
    02:00 +27°C° 0 mm 2 m/S 743 mmHg 98%
    03:00 +27°C° 0.1 mm 2 m/S 743 mmHg 98%
    04:00 +27°C° 0.1 mm 2 m/S 743 mmHg 98%
    05:00 +27°C° 0.1 mm 1 m/S 743 mmHg 99%
    06:00 +27°C° 0.1 mm 2 m/S 743 mmHg 97%
    07:00 +27°C° 0.1 mm 2 m/S 743 mmHg 96%
    08:00 +28°C° 0.1 mm 2 m/S 744 mmHg 95%
    09:00 +28°C° 0.1 mm 2 m/S 743 mmHg 94%
    10:00 +28°C° 0.1 mm 3 m/S 743 mmHg 94%
    11:00 +28°C° 0.1 mm 3 m/S 743 mmHg 93%
    12:00 +28°C° 0.2 mm 3 m/S 743 mmHg 94%
    13:00 +28°C° 0.2 mm 2 m/S 742 mmHg 95%
    14:00 +28°C° 0.2 mm 2 m/S 742 mmHg 96%
    15:00 +28°C° 0.2 mm 2 m/S 742 mmHg 96%
    16:00 +28°C° 0.2 mm 3 m/S 742 mmHg 96%
    17:00 +28°C° 0.2 mm 3 m/S 742 mmHg 96%
    18:00 +28°C° 0.3 mm 2 m/S 742 mmHg 97%
    19:00 +27°C° 0.3 mm 2 m/S 742 mmHg 98%
    20:00 +27°C° 0.3 mm 2 m/S 742 mmHg 98%
    21:00 +27°C° 0.1 mm 2 m/S 741 mmHg 99%
    22:00 +27°C° 0.1 mm 2 m/S 741 mmHg 99%
    23:00 +27°C° 0.1 mm 2 m/S 741 mmHg 99%
    Mehr zeigen